Location: Trout Lake
(45.9980°N, 121.5270°W)
Time: 18:46:32
(UTC-08:00)

CZ-4B DEB - Pass Details

Date: 06 December 2023
Orbit: 837 x 858 km, 99.0° (Epoch: 22 February)

Event Time Altitude Azimuth Distance (km) Brightness Sun altitude
Rises 19:04:49 0° 167° (SSE) 3,414 7.3 -27.5°
Enters shadow 19:06:19 - 168° (SSE) 2,821 6.8 -27.8°
Exits shadow 19:10:50 43° 178° (S) 1,184 4.9 -28.6°
Maximum altitude 19:12:42 78° 256° (WSW) 883 4.2 -28.9°
Drops below altitude 10° 19:18:17 10° 343° (NNW) 2,504 6.8 -29.9°
Sets 19:20:41 0° 345° (NNW) 3,444 7.5 -30.3°
